Seretse Khama, Botswana

6:08 PM CAT on August 16, 2017 (GMT +0200)
Seretse Khama

Weather History for FBSK - April, 2013

Change the Weather History Date:

Sunday, April 21, 2013

  Actual Average Record
Temperature  
Mean Temperature 68 °F -  
Max Temperature 87 °F 76 °F 87 °F (2013)
Min Temperature 48 °F 48 °F 44 °F (2008)
Cooling Degree Days 2    
Growing Degree Days 18 (Base 50)    
Moisture  
Dew Point 43 °F    
Average Humidity 55    
Maximum Humidity 93    
Minimum Humidity 17    
Precipitation  
Precipitation 0.00 in - - ()
Sea Level Pressure  
Sea Level Pressure 30.11 in    
Wind  
Wind Speed 5 mph ()    
Max Wind Speed 12 mph    
Max Gust Speed -    
Averages and records for this station are not official NWS values.
T = Trace of Precipitation, MM = Missing Value Source: Averaged Metar Reports

Daily Weather History Graph

Daily Weather History Graph

Search for Another Location

Airport or City:

Trip Planner

Search our weather history database for the weather conditions in past years. The results will help you decide how hot, cold, wet, or windy it might be!

Date:

Astronomy

Apr. 21, 2013 Rise Set
Actual Time 6:33 AM CAT 5:56 PM CAT
Civil Twilight 6:10 AM CAT 6:19 PM CAT
Nautical Twilight 5:43 AM CAT 6:46 PM CAT
Astronomical Twilight 5:16 AM CAT 7:12 PM CAT
Moon 2:51 PM CAT (4/21) 2:04 AM CAT (4/21)
Length of Visible Light 12h 09m
Length of Day
11h 22m
Waxing Gibbous, 77% of the Moon is Illuminated
Apr 21
Waxing Gibbous
Apr 25
Full
May 2
Last Quarter
May 10
New
May 18
First Quarter

Hourly Weather History & Observations

Time (CAT) Temp. Dew Point Humidity Pressure Visibility Wind Dir Wind Speed Gust Speed Precip Events Conditions
2:00 AM 51.8 °F 48.2 °F 88% 30.12 in - WSW 3.5 mph - N/A   Clear
3:00 AM 51.8 °F 48.2 °F 88% 30.12 in - WSW 5.8 mph - N/A   Clear
4:00 AM 50.0 °F 46.4 °F 87% 30.09 in - West 4.6 mph - N/A   Clear
5:00 AM 48.2 °F 46.4 °F 93% 30.12 in - NW 4.6 mph - N/A   Clear
6:00 AM 48.2 °F 46.4 °F 93% 30.12 in - WSW 4.6 mph - N/A   Clear
7:00 AM 48.2 °F 46.4 °F 93% 30.15 in - WNW 3.5 mph - N/A   Clear
8:00 AM 53.6 °F 48.2 °F 82% 30.15 in - West 3.5 mph - N/A   Clear
9:00 AM 60.8 °F 48.2 °F 63% 30.18 in - Variable 1.2 mph - N/A   Clear
10:00 AM 64.4 °F 46.4 °F 52% 30.18 in - NNW 3.5 mph - N/A   Clear
11:00 AM 69.8 °F 39.2 °F 33% 30.15 in - NW 4.6 mph - N/A   Clear
12:00 PM 87.8 °F 37.4 °F 17% 30.12 in - WNW 8.1 mph - N/A   Clear
1:00 PM 71.6 °F 35.6 °F 27% 30.09 in - West 8.1 mph - N/A   Clear
2:00 PM 73.4 °F 37.4 °F 27% 30.06 in - West 8.1 mph - N/A   Clear
3:00 PM 75.2 °F 37.4 °F 25% 30.04 in - West 8.1 mph - N/A   Clear
4:00 PM 75.2 °F 33.8 °F 22% 30.04 in - West 10.4 mph - N/A   Clear
5:00 PM 73.4 °F 35.6 °F 25% 30.06 in - WSW 10.4 mph - N/A   Clear
6:00 PM 69.8 °F 37.4 °F 31% 30.06 in - SSW 11.5 mph - N/A   Clear
7:00 PM 66.2 °F 44.6 °F 46% 30.06 in - SSW 6.9 mph - N/A   Clear
8:00 PM 64.4 °F 44.6 °F 49% 30.09 in - South 6.9 mph - N/A   Clear
9:00 PM 60.8 °F 46.4 °F 59% 30.12 in - SSW 6.9 mph - N/A   Clear
10:00 PM 60.8 °F 46.4 °F 59% 30.12 in - South 8.1 mph - N/A   Clear
11:00 PM 59.0 °F 44.6 °F 59% 30.12 in - South 8.1 mph - N/A   Clear